Temp
10 9 8 7 6 6 5 5 4 4 4 4 3 3 3 3 3 3 2 2 2 2 2 2 1 1 0 -0 -0 -1 -1 -1 -1 -1 -1 -1 -2 -2 -2 -3 -3 -3 -3 -4 -4 -4 -4 -5 -5 -5 -5 -5 -5 -5 -6 -6 -6 -6 -7 -7 -7 -7 -7 -7 -7 -7 -7 -7 -8
10 9 8 7 7 6 5 5 4 4 4 4 3 3 3 3 3 3 2 2 2 2 2 2 1 1 0 -0 -0 -0 -1 -1 -1 -1 -1 -1 -2 -2 -2 -3 -3 -3 -4 -4 -4 -4 -4 -5 -5 -5 -5 -5 -5 -5 -5 -6 -6 -6 -7 -7 -7 -7 -7 -7 -7 -7 -7 -7 -7
10 10 9 8 7 6 5 5 4 4 4 4 3 3 3 3 3 2 2 2 2 2 2 1 1 1 0 -0 -0 -0 -1 -1 -1 -1 -1 -1 -2 -2 -2 -3 -3 -3 -4 -4 -4 -4 -4 -5 -5 -5 -5 -5 -5 -5 -5 -6 -6 -6 -7 -7 -7 -7 -7 -7 -7 -7 -7 -7 -7
11 10 9 8 7 6 6 5 5 4 4 4 4 3 3 3 3 2 2 2 2 2 2 1 1 1 0 0 -0 -0 -1 -1 -1 -1 -1 -1 -2 -2 -2 -3 -3 -3 -3 -4 -4 -4 -4 -5 -5 -5 -5 -5 -5 -5 -5 -6 -6 -6 -6 -7 -7 -7 -7 -7 -7 -7 -7 -7 -7
11 10 10 9 8 7 6 6 5 5 4 4 3 3 3 3 3 2 2 2 2 2 2 1 1 1 0 0 -0 -0 -0 -1 -1 -1 -1 -1 -2 -2 -3 -3 -3 -3 -3 -4 -4 -4 -4 -4 -5 -5 -5 -5 -5 -5 -5 -6 -6 -6 -7 -7 -7 -7 -7 -7 -7 -7 -7 -7 -7
12 11 10 9 8 7 6 6 5 4 4 4 3 3 3 3 2 2 2 2 2 2 2 1 1 1 0 0 -0 -0 -0 -1 -1 -1 -1 -1 -2 -2 -2 -3 -3 -3 -3 -4 -4 -4 -4 -4 -5 -5 -5 -5 -5 -5 -5 -6 -6 -6 -7 -7 -7 -7 -7 -7 -7 -7 -7 -7 -7
12 11 10 10 9 8 7 6 5 4 4 3 3 3 3 3 2 2 2 2 2 2 1 1 1 1 0 0 -0 -0 -0 -0 -1 -1 -1 -1 -2 -2 -2 -3 -3 -3 -3 -3 -4 -4 -4 -4 -5 -5 -5 -5 -5 -5 -5 -6 -6 -6 -7 -7 -7 -7 -7 -7 -7 -7 -7 -7 -7
12 11 10 10 9 8 7 6 5 4 4 4 3 3 3 3 2 2 2 2 2 2 1 1 1 1 0 0 -0 -0 -0 -0 -1 -1 -1 -1 -2 -2 -2 -3 -3 -3 -3 -3 -4 -4 -4 -4 -5 -5 -5 -5 -5 -5 -5 -6 -6 -7 -7 -7 -7 -7 -7 -7 -7 -7 -7 -7 -7
12 11 10 10 9 8 7 6 5 5 4 4 3 3 3 3 2 2 2 2 2 1 1 1 1 1 0 -0 -0 -0 -0 -0 -1 -1 -1 -1 -2 -2 -2 -2 -3 -3 -3 -3 -4 -4 -4 -4 -4 -4 -5 -5 -5 -5 -6 -6 -6 -7 -7 -7 -7 -7 -7 -7 -7 -7 -7 -7 -7
12 11 11 10 9 8 7 6 5 5 4 4 3 3 3 2 2 2 2 2 1 1 1 1 1 0 0 -0 -0 -0 -0 -0 -1 -1 -1 -1 -2 -2 -2 -2 -3 -3 -3 -3 -4 -4 -4 -4 -4 -4 -5 -5 -5 -5 -6 -6 -6 -7 -7 -7 -7 -7 -7 -7 -7 -7 -7 -7 -7
12 11 10 10 9 8 7 6 5 5 4 3 3 3 3 2 2 2 2 1 1 1 1 1 1 0 0 -0 -0 -0 -0 -1 -1 -1 -1 -1 -2 -2 -2 -2 -2 -3 -3 -3 -4 -4 -4 -4 -4 -4 -5 -5 -5 -5 -6 -6 -6 -7 -7 -7 -7 -7 -7 -7 -7 -7 -7 -7 -7
11 11 10 9 9 8 7 6 5 5 4 4 3 3 2 2 2 2 1 1 1 1 1 1 1 0 0 -0 -0 -0 -0 -1 -1 -1 -1 -1 -1 -2 -2 -2 -2 -3 -3 -3 -4 -4 -4 -4 -4 -4 -5 -5 -5 -5 -6 -6 -6 -7 -7 -7 -7 -7 -7 -7 -7 -7 -7 -7 -7
11 10 10 9 8 8 7 6 6 5 4 4 3 3 2 2 2 2 1 1 1 1 1 1 1 0 0 -0 -0 -0 -0 -1 -1 -1 -1 -1 -1 -2 -2 -2 -2 -3 -3 -3 -4 -4 -4 -4 -4 -4 -5 -5 -5 -5 -6 -6 -6 -7 -7 -7 -7 -7 -7 -7 -7 -7 -7 -7 -7
10 10 9 9 8 8 7 6 6 5 4 4 3 3 2 2 2 2 1 1 1 1 1 1 1 0 0 -0 -0 -0 -1 -1 -1 -1 -1 -1 -1 -2 -2 -2 -2 -2 -3 -3 -3 -4 -4 -4 -4 -4 -5 -5 -5 -5 -6 -6 -6 -7 -7 -7 -7 -7 -7 -7 -7 -7 -7 -7 -7
10 10 9 9 8 8 7 6 6 5 4 4 3 3 2 2 2 2 1 1 1 1 1 1 1 0 0 -0 -0 -0 -1 -1 -1 -1 -1 -1 -1 -1 -2 -2 -2 -3 -3 -3 -3 -4 -4 -4 -4 -4 -5 -5 -5 -5 -6 -6 -6 -7 -7 -7 -7 -7 -7 -7 -7 -7 -7 -7 -7
10 10 9 8 8 8 7 7 6 5 5 4 4 3 2 2 2 1 1 1 1 1 1 1 1 0 0 -0 -0 -1 -1 -1 -1 -1 -1 -1 -1 -1 -2 -2 -2 -3 -3 -3 -3 -4 -4 -4 -4 -4 -5 -5 -5 -5 -6 -6 -6 -6 -7 -7 -7 -7 -7 -7 -7 -7 -7 -7 -7
10 10 9 9 8 8 7 7 6 6 5 4 4 3 3 2 2 1 1 1 1 1 1 1 1 0 0 -0 -0 -1 -1 -1 -1 -1 -1 -1 -1 -1 -2 -2 -2 -3 -3 -3 -3 -3 -4 -4 -4 -4 -5 -5 -5 -5 -6 -6 -6 -6 -6 -7 -7 -7 -7 -7 -7 -7 -7 -7 -7
10 10 9 9 8 8 7 7 6 6 5 5 4 3 3 2 2 2 1 1 1 1 1 1 1 0 0 -0 -0 -1 -1 -1 -1 -1 -1 -1 -1 -2 -2 -2 -2 -2 -3 -3 -3 -3 -4 -4 -4 -4 -5 -5 -5 -5 -6 -6 -6 -6 -6 -6 -7 -7 -7 -7 -7 -7 -7 -7 -7
10 10 9 9 9 8 8 7 6 6 5 5 4 4 3 2 2 2 1 1 1 1 1 1 0 0 0 -0 -0 -1 -1 -1 -1 -1 -1 -1 -1 -2 -2 -2 -2 -2 -3 -3 -3 -3 -3 -4 -4 -4 -5 -5 -5 -5 -6 -6 -6 -6 -6 -6 -6 -6 -6 -7 -7 -7 -7 -7 -7
10 9 9 9 9 8 8 7 6 6 5 5 4 4 3 2 2 2 1 1 1 1 1 0 0 0 -0 -0 -0 -1 -1 -1 -1 -1 -1 -1 -1 -2 -2 -2 -2 -2 -2 -3 -3 -3 -3 -4 -4 -4 -5 -5 -5 -5 -6 -6 -6 -6 -6 -6 -6 -6 -6 -7 -7 -7 -7 -7 -7
10 10 10 9 9 8 7 7 6 6 5 5 4 4 3 2 2 2 1 1 1 1 1 0 0 0 -0 -0 -0 -0 -1 -1 -1 -1 -1 -1 -1 -2 -2 -2 -2 -2 -2 -3 -3 -3 -3 -4 -4 -4 -5 -5 -5 -5 -6 -6 -6 -6 -6 -6 -6 -6 -6 -7 -7 -6 -6 -7 -7
10 10 9 9 8 8 7 6 6 5 5 4 4 3 3 2 2 2 1 1 1 1 0 0 0 0 -0 -0 -0 -1 -1 -1 -1 -1 -1 -1 -1 -2 -2 -2 -2 -2 -2 -3 -3 -3 -3 -4 -4 -4 -4 -5 -5 -5 -6 -6 -6 -6 -7 -6 -6 -6 -6 -6 -6 -6 -6 -7 -7
10 9 9 8 8 7 7 6 5 5 4 4 4 3 3 2 2 1 1 1 1 0 0 0 0 -0 -0 -0 -0 -1 -1 -1 -1 -1 -1 -1 -1 -2 -2 -2 -2 -2 -2 -2 -3 -3 -3 -4 -4 -4 -4 -5 -5 -6 -6 -6 -6 -7 -7 -6 -6 -6 -6 -6 -6 -6 -7 -7 -7
9 9 8 8 7 7 6 6 5 5 4 4 3 3 3 2 2 1 1 1 1 0 0 0 -0 -0 -0 -0 -1 -1 -1 -1 -1 -1 -1 -1 -1 -2 -2 -2 -2 -2 -2 -2 -3 -3 -3 -4 -4 -4 -5 -5 -5 -6 -6 -6 -6 -6 -6 -6 -6 -6 -6 -6 -7 -7 -7 -7 -7
9 8 8 7 7 7 6 6 5 5 4 4 3 3 2 2 2 1 1 1 0 0 0 0 -0 -0 -0 -1 -1 -1 -1 -1 -1 -1 -1 -1 -1 -1 -2 -2 -2 -2 -2 -2 -3 -3 -3 -4 -4 -4 -4 -5 -5 -5 -6 -6 -6 -6 -6 -6 -6 -7 -7 -7 -7 -7 -7 -7 -7
8 8 8 7 7 6 6 6 5 5 4 4 3 3 2 2 1 1 1 1 0 0 0 -0 -0 -0 -0 -1 -1 -1 -1 -1 -1 -1 -1 -1 -1 -2 -2 -2 -2 -2 -2 -2 -3 -3 -3 -4 -4 -4 -5 -5 -5 -5 -6 -6 -6 -6 -7 -7 -7 -7 -7 -8 -8 -7 -7 -7 -7
8 8 7 7 6 6 6 5 5 4 4 3 3 3 2 2 1 1 1 0 0 0 -0 -0 -0 -0 -1 -1 -1 -1 -1 -1 -1 -1 -1 -1 -2 -2 -2 -2 -2 -2 -2 -2 -3 -3 -3 -4 -4 -5 -5 -6 -6 -6 -7 -7 -7 -8 -8 -8 -8 -8 -8 -8 -8 -7 -7 -8 -8
8 7 7 6 6 6 5 5 5 4 4 3 3 3 2 2 1 1 1 0 0 0 -0 -0 -0 -1 -1 -1 -1 -1 -1 -1 -1 -1 -2 -2 -2 -2 -2 -3 -3 -3 -3 -3 -3 -3 -4 -4 -4 -5 -5 -6 -7 -7 -8 -8 -8 -8 -8 -8 -8 -8 -8 -8 -8 -8 -8 -8 -8
8 7 7 6 6 6 5 5 5 4 4 3 3 3 2 2 1 1 1 0 0 -0 -0 -0 -0 -1 -1 -1 -1 -1 -1 -1 -1 -2 -2 -2 -2 -2 -2 -3 -3 -3 -3 -3 -3 -3 -4 -4 -4 -5 -5 -6 -7 -7 -8 -8 -8 -8 -8 -8 -8 -8 -8 -8 -8 -8 -8 -8 -8
8 7 7 6 6 6 5 5 5 4 4 3 3 2 2 2 1 1 1 0 0 -0 -0 -0 -0 -1 -1 -1 -1 -1 -1 -1 -2 -2 -2 -2 -2 -2 -3 -3 -3 -3 -3 -3 -3 -3 -4 -4 -4 -4 -5 -6 -6 -7 -7 -8 -8 -8 -8 -8 -8 -8 -8 -8 -8 -8 -7 -8 -8
7 7 7 6 6 6 5 5 5 4 4 3 3 2 2 2 1 1 1 0 0 -0 -0 -0 -0 -1 -1 -1 -1 -1 -1 -1 -2 -2 -2 -2 -2 -3 -3 -3 -3 -3 -3 -3 -3 -3 -4 -4 -4 -4 -5 -5 -6 -7 -7 -8 -8 -8 -8 -8 -8 -8 -8 -8 -8 -7 -7 -7 -7
7 7 6 6 6 6 5 5 4 4 4 3 3 2 2 2 1 1 1 0 0 -0 -0 -0 -1 -1 -1 -1 -1 -1 -1 -2 -2 -2 -2 -3 -3 -3 -3 -3 -3 -3 -3 -4 -3 -4 -4 -4 -4 -4 -5 -5 -6 -7 -7 -7 -8 -8 -8 -8 -8 -8 -8 -8 -7 -7 -7 -7 -8
7 6 6 6 6 5 5 4 4 4 3 3 3 2 2 2 1 1 1 0 0 -0 -0 -0 -0 -1 -1 -1 -1 -1 -1 -2 -2 -3 -3 -3 -3 -3 -3 -3 -3 -3 -4 -4 -4 -4 -4 -4 -4 -4 -5 -5 -6 -6 -7 -7 -7 -7 -8 -8 -8 -8 -7 -7 -7 -7 -7 -7 -8
7 6 6 6 6 5 5 4 4 4 3 3 3 2 2 2 1 1 1 0 -0 -0 -0 -0 -0 -0 -1 -1 -1 -1 -1 -2 -2 -3 -3 -3 -3 -3 -3 -3 -3 -3 -4 -4 -4 -4 -4 -4 -4 -4 -5 -5 -6 -6 -6 -7 -7 -7 -7 -7 -7 -7 -7 -7 -7 -7 -8 -8 -8
7 7 6 6 5 5 5 4 4 4 3 3 3 3 2 2 1 1 1 0 -0 -0 -0 -1 -1 -1 -1 -1 -1 -1 -2 -2 -3 -3 -3 -3 -3 -3 -3 -3 -3 -4 -4 -4 -4 -4 -4 -4 -4 -4 -5 -5 -6 -6 -6 -6 -6 -6 -6 -7 -7 -7 -7 -7 -8 -8 -8 -8 -8
7 7 6 6 5 5 5 4 4 4 4 3 3 3 2 2 2 1 1 0 -0 -0 -1 -1 -1 -1 -1 -1 -1 -2 -2 -2 -3 -3 -3 -3 -3 -3 -3 -3 -3 -4 -4 -4 -4 -4 -4 -4 -4 -4 -5 -5 -5 -5 -5 -6 -6 -6 -6 -6 -6 -7 -7 -7 -8 -8 -8 -8 -8
7 6 6 6 5 5 5 5 4 4 4 4 4 3 3 2 2 1 1 0 -0 -1 -1 -1 -1 -1 -1 -1 -1 -2 -2 -2 -3 -3 -3 -3 -3 -3 -3 -3 -3 -4 -4 -4 -4 -4 -4 -4 -4 -4 -4 -5 -5 -5 -5 -5 -5 -6 -6 -6 -6 -7 -7 -7 -8 -8 -8 -8 -8
7 7 6 6 5 5 5 5 5 4 4 4 4 3 3 2 2 1 1 0 -0 -0 -1 -1 -1 -1 -1 -1 -1 -2 -2 -3 -3 -3 -3 -3 -3 -3 -3 -3 -3 -4 -4 -4 -4 -4 -4 -4 -4 -4 -4 -5 -5 -5 -5 -5 -5 -5 -6 -6 -6 -6 -7 -7 -8 -8 -8 -8 -8
7 7 7 6 6 5 5 5 5 5 5 4 4 3 3 2 2 1 1 1 0 -0 -0 -1 -1 -1 -1 -1 -1 -2 -2 -3 -3 -3 -3 -3 -3 -3 -3 -3 -3 -3 -4 -4 -4 -4 -4 -4 -4 -4 -4 -5 -5 -5 -5 -5 -5 -5 -5 -6 -6 -6 -7 -7 -7 -8 -8 -8 -8
7 7 7 7 6 6 5 5 5 5 4 4 3 2 2 2 2 1 1 0 0 -0 -0 -1 -1 -1 -1 -1 -2 -2 -3 -3 -3 -3 -3 -3 -3 -3 -3 -3 -3 -3 -4 -4 -4 -4 -4 -4 -4 -4 -4 -5 -5 -5 -5 -5 -5 -5 -5 -6 -6 -6 -7 -7 -8 -8 -7 -8 -8
8 8 7 7 7 6 6 5 5 4 3 3 2 2 1 1 1 0 0 -0 -0 -0 -1 -1 -1 -1 -1 -1 -2 -2 -3 -3 -3 -3 -3 -3 -3 -3 -3 -3 -3 -3 -4 -4 -4 -4 -4 -4 -4 -4 -4 -4 -5 -5 -5 -5 -5 -5 -5 -6 -6 -7 -7 -8 -8 -7 -7 -8 -8
Height
1472 1472 1473 1474 1475 1476 1477 1478 1479 1480 1481 1482 1482 1483 1484 1484 1484 1485 1485 1486 1486 1487 1487 1488 1488 1489 1489 1489 1489 1489 1489 1488 1488 1488 1488 1488 1487 1487 1487 1486 1486 1486 1485 1485 1485 1485 1484 1484 1484 1483 1482 1482 1481 1481 1480 1480 1479 1479 1478 1477 1476 1476 1475 1474 1473 1473 1472 1471 1470
1469 1469 1470 1471 1472 1473 1474 1475 1476 1477 1478 1479 1479 1480 1481 1482 1482 1483 1483 1484 1484 1485 1485 1486 1486 1487 1487 1487 1487 1487 1486 1486 1486 1486 1486 1485 1485 1485 1485 1484 1484 1484 1484 1483 1483 1483 1483 1482 1482 1481 1480 1479 1479 1479 1479 1478 1478 1477 1476 1475 1474 1474 1473 1472 1471 1471 1470 1469 1468
1466 1467 1467 1468 1469 1469 1470 1471 1472 1474 1475 1476 1477 1478 1479 1479 1480 1480 1481 1481 1482 1483 1483 1484 1484 1484 1485 1485 1484 1484 1484 1484 1484 1484 1484 1484 1483 1483 1483 1483 1482 1482 1482 1482 1481 1481 1481 1480 1479 1479 1478 1478 1477 1477 1477 1476 1476 1475 1474 1473 1473 1472 1471 1470 1469 1469 1468 1467 1466
1463 1464 1464 1464 1465 1466 1467 1468 1469 1471 1472 1474 1475 1475 1476 1477 1477 1478 1479 1479 1480 1480 1481 1481 1482 1482 1482 1482 1482 1482 1482 1482 1482 1482 1482 1481 1481 1481 1481 1480 1480 1480 1480 1480 1479 1479 1479 1478 1478 1477 1476 1476 1475 1475 1475 1474 1474 1473 1472 1471 1470 1470 1469 1468 1468 1467 1466 1465 1464
1460 1460 1461 1461 1462 1463 1464 1465 1467 1468 1470 1471 1472 1473 1473 1474 1475 1475 1476 1476 1477 1478 1478 1479 1479 1480 1480 1480 1480 1480 1480 1480 1480 1480 1479 1479 1479 1479 1479 1479 1478 1478 1478 1478 1478 1477 1477 1476 1475 1475 1474 1474 1474 1473 1473 1473 1472 1471 1470 1469 1469 1468 1467 1466 1466 1465 1464 1464 1463
1457 1458 1458 1459 1460 1461 1462 1463 1464 1465 1467 1468 1469 1469 1470 1471 1472 1473 1473 1474 1474 1475 1476 1477 1477 1477 1477 1478 1478 1478 1478 1478 1478 1477 1477 1477 1477 1477 1477 1476 1476 1476 1476 1476 1475 1475 1475 1474 1474 1473 1472 1472 1471 1471 1471 1471 1470 1469 1468 1467 1467 1466 1465 1464 1464 1463 1463 1462 1461
1454 1455 1455 1456 1457 1458 1459 1460 1461 1463 1464 1464 1465 1466 1467 1468 1469 1470 1470 1471 1472 1473 1474 1474 1474 1474 1475 1475 1475 1475 1475 1475 1475 1475 1475 1475 1475 1475 1475 1474 1474 1474 1474 1474 1474 1473 1473 1472 1472 1471 1470 1470 1469 1469 1469 1469 1468 1467 1466 1465 1465 1464 1464 1463 1462 1461 1460 1459 1459
1451 1452 1452 1453 1454 1455 1456 1457 1458 1459 1460 1461 1462 1463 1464 1465 1467 1467 1468 1469 1469 1470 1470 1471 1471 1472 1472 1473 1473 1473 1473 1473 1473 1473 1473 1473 1473 1473 1473 1473 1472 1472 1472 1472 1472 1471 1471 1470 1469 1469 1468 1468 1468 1467 1467 1466 1465 1464 1464 1463 1463 1462 1462 1461 1460 1459 1459 1458 1457
1448 1449 1449 1450 1451 1452 1453 1454 1455 1456 1456 1457 1459 1460 1462 1463 1464 1464 1465 1466 1466 1467 1468 1468 1469 1469 1470 1470 1470 1471 1471 1471 1471 1471 1471 1471 1471 1470 1470 1470 1470 1470 1470 1470 1469 1469 1469 1468 1468 1467 1466 1466 1465 1465 1465 1464 1463 1462 1462 1461 1460 1460 1459 1459 1458 1457 1457 1456 1455
1445 1446 1447 1448 1448 1449 1450 1451 1452 1452 1453 1454 1456 1457 1459 1460 1461 1461 1462 1463 1464 1464 1465 1465 1466 1467 1467 1467 1468 1468 1469 1469 1469 1469 1469 1469 1468 1468 1468 1468 1468 1468 1468 1468 1468 1467 1467 1466 1465 1465 1464 1464 1464 1463 1463 1462 1461 1460 1459 1459 1459 1458 1457 1457 1457 1456 1455 1454 1453
1442 1443 1444 1445 1446 1447 1447 1448 1448 1449 1450 1451 1453 1454 1456 1457 1458 1459 1459 1460 1461 1461 1462 1463 1464 1464 1464 1465 1465 1466 1466 1466 1466 1466 1466 1466 1466 1466 1466 1466 1466 1466 1465 1465 1465 1465 1464 1464 1464 1463 1463 1462 1461 1461 1460 1460 1459 1458 1458 1457 1456 1456 1455 1455 1455 1454 1453 1452 1451
1440 1441 1441 1442 1443 1444 1444 1445 1445 1446 1447 1448 1449 1451 1452 1453 1454 1456 1457 1457 1458 1458 1459 1460 1461 1461 1462 1462 1463 1463 1464 1464 1464 1464 1464 1464 1464 1464 1464 1464 1464 1464 1464 1464 1463 1463 1462 1462 1461 1461 1460 1460 1459 1459 1458 1458 1457 1456 1455 1455 1454 1454 1453 1453 1453 1452 1451 1450 1449
1437 1438 1439 1439 1440 1441 1441 1441 1442 1443 1443 1444 1446 1447 1449 1450 1452 1453 1454 1454 1454 1455 1456 1457 1458 1459 1459 1460 1460 1461 1461 1461 1462 1462 1462 1462 1462 1462 1462 1461 1461 1461 1461 1461 1461 1461 1460 1460 1459 1459 1459 1458 1457 1457 1456 1456 1455 1454 1453 1453 1452 1452 1451 1451 1451 1450 1449 1448 1447
1434 1435 1435 1436 1437 1437 1438 1438 1439 1439 1440 1441 1443 1444 1446 1447 1449 1449 1450 1451 1452 1453 1454 1454 1455 1456 1456 1457 1458 1458 1459 1459 1459 1459 1459 1459 1459 1459 1459 1459 1459 1459 1459 1459 1459 1459 1458 1458 1457 1457 1456 1456 1455 1455 1454 1454 1453 1452 1451 1451 1450 1449 1449 1449 1449 1448 1447 1446 1445
1431 1431 1432 1433 1434 1434 1434 1435 1435 1436 1437 1438 1439 1441 1443 1444 1445 1446 1447 1448 1449 1450 1451 1452 1452 1453 1454 1455 1455 1456 1456 1457 1457 1457 1457 1457 1457 1457 1457 1457 1457 1457 1457 1457 1457 1457 1456 1456 1455 1455 1454 1454 1453 1453 1452 1452 1451 1450 1449 1449 1448 1448 1447 1447 1446 1446 1445 1444 1443
1427 1428 1429 1429 1430 1431 1431 1432 1432 1433 1434 1435 1436 1438 1439 1441 1442 1443 1444 1445 1446 1447 1448 1449 1449 1450 1451 1452 1453 1453 1454 1454 1454 1454 1454 1455 1455 1455 1455 1455 1455 1455 1455 1455 1455 1454 1454 1454 1453 1453 1452 1451 1451 1450 1450 1449 1449 1448 1447 1447 1446 1445 1445 1444 1444 1444 1443 1442 1441
1424 1425 1425 1426 1427 1427 1428 1429 1429 1430 1431 1432 1434 1435 1436 1437 1439 1440 1441 1442 1443 1444 1445 1446 1447 1448 1449 1449 1450 1451 1451 1451 1452 1452 1452 1452 1453 1453 1453 1453 1453 1453 1453 1453 1453 1453 1452 1452 1451 1451 1450 1449 1449 1448 1448 1447 1447 1446 1445 1445 1444 1444 1443 1443 1442 1441 1441 1440 1439
1421 1422 1422 1423 1424 1424 1425 1426 1426 1427 1428 1429 1430 1432 1433 1434 1435 1436 1438 1439 1440 1441 1442 1443 1444 1445 1446 1447 1447 1448 1449 1449 1449 1449 1450 1450 1450 1451 1451 1451 1451 1451 1451 1451 1451 1450 1450 1449 1449 1449 1448 1447 1447 1446 1446 1445 1444 1444 1444 1443 1442 1442 1441 1440 1440 1439 1439 1437 1436
1418 1419 1419 1420 1421 1422 1422 1423 1424 1424 1425 1427 1428 1429 1430 1431 1432 1434 1435 1436 1437 1438 1439 1441 1442 1443 1444 1444 1445 1445 1446 1446 1447 1447 1448 1448 1448 1449 1449 1449 1449 1449 1449 1449 1449 1448 1448 1448 1447 1446 1446 1445 1444 1444 1444 1443 1442 1442 1441 1441 1440 1439 1439 1439 1438 1438 1436 1435 1434
1415 1416 1417 1417 1418 1419 1420 1420 1421 1422 1423 1424 1425 1426 1427 1428 1429 1430 1432 1433 1434 1436 1437 1438 1439 1440 1441 1442 1442 1443 1443 1444 1445 1445 1445 1446 1446 1446 1446 1446 1447 1447 1447 1447 1446 1446 1446 1445 1445 1444 1444 1443 1442 1442 1441 1441 1440 1440 1439 1439 1438 1437 1437 1437 1436 1435 1434 1433 1432
1413 1414 1414 1415 1416 1417 1417 1418 1419 1420 1420 1421 1422 1423 1424 1425 1426 1427 1429 1430 1432 1433 1434 1435 1436 1437 1438 1439 1439 1440 1441 1442 1442 1443 1443 1444 1444 1444 1444 1444 1444 1444 1444 1444 1444 1444 1444 1443 1443 1442 1442 1441 1440 1440 1439 1439 1438 1438 1437 1436 1436 1435 1435 1434 1434 1433 1432 1431 1430
1410 1411 1412 1413 1414 1414 1415 1416 1416 1417 1418 1418 1419 1420 1421 1422 1423 1424 1426 1428 1429 1430 1431 1432 1433 1434 1435 1436 1437 1438 1439 1439 1440 1440 1441 1441 1441 1442 1442 1442 1442 1442 1442 1442 1442 1442 1441 1441 1441 1440 1439 1439 1438 1438 1437 1437 1436 1435 1434 1434 1434 1433 1433 1432 1431 1430 1429 1429 1428
1409 1409 1410 1410 1411 1412 1412 1413 1414 1414 1414 1415 1416 1417 1418 1419 1421 1422 1424 1425 1426 1427 1428 1429 1431 1432 1433 1434 1435 1435 1436 1437 1438 1438 1439 1439 1439 1439 1440 1440 1440 1440 1440 1440 1440 1440 1439 1439 1439 1438 1438 1437 1436 1436 1435 1434 1434 1433 1432 1432 1431 1431 1430 1429 1429 1428 1427 1427 1426
1407 1407 1407 1408 1408 1409 1410 1410 1411 1411 1412 1412 1413 1414 1415 1417 1419 1420 1421 1422 1423 1424 1426 1427 1428 1429 1430 1431 1432 1433 1434 1434 1435 1436 1436 1437 1437 1437 1438 1438 1438 1438 1438 1438 1438 1438 1437 1437 1436 1436 1435 1435 1434 1434 1433 1433 1432 1431 1430 1429 1429 1428 1428 1427 1426 1426 1426 1425 1424
1404 1405 1405 1405 1406 1407 1407 1408 1408 1409 1409 1410 1411 1412 1414 1415 1416 1417 1418 1419 1420 1422 1423 1424 1426 1427 1428 1429 1429 1430 1431 1432 1433 1434 1434 1434 1435 1435 1435 1436 1436 1436 1436 1436 1436 1436 1435 1434 1434 1434 1433 1433 1432 1431 1431 1430 1429 1429 1428 1427 1427 1426 1425 1425 1424 1424 1424 1424 1423
1403 1403 1403 1403 1404 1404 1405 1405 1406 1406 1407 1408 1409 1410 1411 1412 1414 1415 1416 1417 1418 1419 1421 1422 1423 1424 1425 1425 1426 1427 1429 1429 1430 1431 1432 1432 1433 1433 1433 1434 1434 1434 1434 1434 1434 1434 1433 1433 1432 1431 1430 1430 1429 1429 1428 1427 1426 1426 1425 1425 1424 1424 1424 1423 1423 1423 1422 1422 1421
1401 1401 1401 1401 1402 1402 1402 1403 1404 1404 1405 1406 1407 1408 1409 1410 1411 1412 1414 1414 1416 1417 1419 1419 1420 1421 1422 1423 1424 1425 1426 1427 1428 1429 1429 1430 1430 1431 1431 1431 1432 1432 1432 1432 1432 1431 1431 1431 1430 1429 1429 1428 1427 1426 1425 1425 1424 1424 1424 1423 1423 1422 1422 1421 1421 1421 1420 1419 1419
1399 1399 1399 1399 1399 1400 1400 1401 1402 1402 1403 1404 1405 1406 1407 1408 1409 1410 1411 1412 1414 1415 1416 1417 1417 1418 1419 1419 1421 1422 1424 1425 1426 1427 1427 1428 1428 1428 1429 1429 1429 1429 1429 1430 1429 1429 1429 1429 1428 1428 1427 1427 1426 1425 1424 1424 1423 1422 1422 1421 1421 1420 1420 1420 1419 1419 1418 1417 1416
1397 1397 1397 1397 1397 1398 1398 1399 1399 1400 1401 1402 1403 1404 1405 1406 1406 1407 1409 1410 1411 1412 1413 1414 1414 1415 1416 1417 1418 1419 1421 1422 1423 1424 1425 1425 1426 1426 1426 1427 1427 1427 1427 1428 1427 1427 1427 1426 1426 1426 1425 1425 1424 1423 1422 1422 1421 1420 1420 1419 1419 1419 1418 1418 1417 1416 1416 1415 1414
1395 1395 1395 1395 1395 1395 1395 1396 1396 1398 1399 1400 1401 1401 1402 1403 1404 1404 1405 1407 1408 1409 1410 1411 1412 1413 1413 1414 1416 1417 1419 1419 1421 1421 1422 1423 1423 1424 1424 1424 1424 1424 1425 1425 1425 1425 1424 1424 1424 1424 1423 1423 1422 1421 1420 1419 1419 1419 1418 1418 1417 1417 1416 1416 1415 1414 1414 1413 1412
1393 1393 1393 1393 1393 1393 1393 1393 1394 1395 1396 1397 1398 1398 1399 1400 1400 1401 1403 1404 1405 1406 1408 1409 1409 1410 1411 1412 1414 1415 1416 1417 1418 1419 1419 1420 1421 1421 1421 1422 1422 1422 1423 1423 1423 1423 1422 1422 1422 1421 1421 1421 1420 1419 1418 1418 1417 1417 1416 1415 1415 1414 1414 1414 1413 1413 1412 1411 1410
1390 1390 1390 1390 1390 1390 1390 1391 1392 1392 1393 1394 1394 1395 1396 1396 1398 1399 1400 1401 1403 1404 1405 1405 1406 1407 1408 1409 1411 1412 1413 1414 1415 1416 1417 1418 1418 1419 1419 1419 1419 1419 1420 1420 1420 1420 1420 1420 1419 1419 1419 1419 1418 1417 1416 1415 1415 1414 1414 1413 1413 1412 1412 1412 1411 1411 1410 1409 1408
1388 1388 1388 1388 1388 1388 1388 1389 1389 1389 1390 1391 1391 1392 1393 1393 1394 1396 1397 1399 1400 1401 1401 1402 1403 1404 1405 1407 1408 1409 1410 1411 1412 1413 1414 1415 1415 1416 1416 1416 1417 1417 1418 1418 1418 1418 1418 1418 1417 1417 1417 1416 1416 1415 1414 1413 1413 1412 1411 1411 1410 1410 1410 1410 1409 1409 1408 1408 1406
1387 1386 1386 1386 1386 1386 1386 1386 1386 1387 1387 1387 1388 1388 1389 1390 1391 1392 1394 1395 1396 1397 1398 1399 1400 1401 1403 1404 1405 1407 1408 1409 1409 1410 1411 1412 1413 1413 1413 1414 1414 1415 1415 1416 1416 1416 1415 1415 1415 1415 1414 1414 1414 1413 1412 1411 1410 1409 1409 1409 1408 1408 1408 1408 1408 1407 1406 1405 1404
1385 1384 1384 1384 1383 1383 1383 1383 1383 1384 1384 1384 1384 1384 1385 1386 1387 1388 1389 1391 1392 1394 1394 1395 1397 1399 1400 1401 1403 1404 1405 1406 1407 1408 1409 1409 1410 1410 1410 1411 1411 1412 1413 1413 1413 1413 1413 1413 1413 1413 1412 1412 1411 1410 1409 1409 1408 1407 1407 1406 1406 1406 1406 1406 1406 1405 1404 1403 1402
1383 1382 1382 1381 1381 1381 1380 1380 1380 1380 1380 1380 1380 1380 1381 1382 1383 1384 1385 1387 1389 1389 1391 1392 1394 1395 1396 1398 1399 1401 1402 1403 1404 1405 1405 1406 1407 1407 1408 1408 1409 1410 1410 1411 1411 1411 1411 1411 1411 1410 1410 1409 1409 1408 1407 1406 1406 1405 1404 1404 1404 1404 1404 1404 1403 1403 1402 1401 1399
1382 1380 1379 1379 1378 1378 1377 1377 1376 1376 1375 1375 1376 1376 1377 1378 1379 1380 1381 1383 1384 1385 1386 1388 1389 1391 1392 1394 1396 1398 1399 1400 1401 1402 1403 1403 1404 1404 1405 1406 1406 1407 1408 1408 1409 1409 1409 1409 1408 1408 1408 1407 1406 1405 1405 1404 1404 1403 1402 1402 1401 1401 1401 1401 1401 1400 1399 1399 1398
1380 1379 1377 1376 1375 1375 1374 1374 1373 1372 1371 1371 1371 1372 1373 1374 1374 1375 1377 1378 1379 1380 1382 1384 1385 1387 1389 1392 1394 1395 1396 1397 1398 1399 1400 1400 1401 1402 1403 1403 1404 1404 1405 1406 1406 1406 1406 1406 1406 1406 1405 1405 1404 1403 1403 1402 1401 1400 1400 1399 1399 1399 1399 1399 1399 1398 1398 1398 1397
1378 1377 1375 1374 1372 1372 1371 1370 1369 1368 1368 1368 1368 1368 1369 1369 1370 1371 1372 1374 1375 1376 1378 1380 1382 1384 1387 1389 1391 1392 1393 1394 1395 1396 1397 1398 1399 1399 1400 1401 1401 1402 1403 1403 1404 1404 1404 1404 1404 1404 1403 1403 1402 1401 1401 1400 1399 1398 1398 1398 1397 1397 1397 1397 1397 1396 1396 1396 1396
1374 1373 1372 1370 1369 1369 1368 1366 1365 1365 1365 1365 1365 1365 1366 1366 1367 1368 1369 1370 1371 1373 1375 1377 1379 1382 1384 1387 1388 1389 1390 1391 1392 1394 1394 1395 1396 1397 1398 1398 1399 1399 1400 1401 1401 1401 1401 1402 1402 1401 1401 1400 1400 1399 1399 1398 1397 1396 1396 1395 1395 1395 1394 1394 1394 1394 1394 1394 1394
1369 1369 1367 1366 1366 1365 1364 1363 1363 1363 1363 1363 1363 1363 1364 1365 1365 1366 1367 1368 1369 1370 1372 1374 1377 1379 1382 1384 1385 1386 1387 1389 1390 1391 1392 1393 1394 1394 1395 1395 1396 1397 1398 1398 1399 1399 1399 1399 1399 1399 1399 1398 1398 1397 1397 1396 1395 1394 1394 1393 1393 1393 1392 1392 1392 1392 1392 1392 1391
Wind_Speed
40 41 41 42 43 43 44 44 43 43 43 42 41 39 38 37 36 35 34 34 33 32 31 30 29 28 27 27 27 27 27 27 27 26 26 25 24 23 23 22 21 21 22 22 22 23 23 24 24 25 25 25 24 24 23 23 22 23 23 23 23 23 23 24 24 25 25 26 27
38 39 40 41 42 43 44 44 44 44 43 42 41 39 38 37 36 36 35 34 33 32 31 30 29 28 28 28 28 28 27 27 27 26 26 25 25 24 23 22 22 22 22 22 22 23 23 24 24 25 25 25 25 24 23 22 22 23 23 23 23 23 23 24 24 25 25 26 27
36 37 38 40 41 43 44 44 44 44 43 42 41 39 38 37 37 36 35 34 33 32 31 31 30 29 29 28 28 28 28 27 27 26 26 26 25 24 23 22 22 22 22 22 22 23 23 24 24 25 25 25 25 24 23 22 22 22 23 23 23 23 24 24 24 25 25 26 27
34 35 36 38 39 41 42 42 43 42 42 41 40 39 39 38 37 36 35 34 33 32 32 31 30 30 29 29 29 28 28 27 27 27 26 26 25 24 23 22 22 22 22 22 23 23 23 24 25 25 25 25 25 24 23 22 22 22 23 23 23 23 24 24 24 25 25 26 27
33 34 34 35 36 37 39 40 41 41 41 40 40 40 39 38 37 36 35 35 34 33 32 31 31 30 30 29 29 29 28 28 27 27 26 26 25 24 23 23 22 22 22 22 23 23 23 24 25 25 25 25 25 24 23 23 23 23 23 23 23 23 24 24 24 24 25 26 26
33 33 33 33 34 35 37 39 40 41 41 41 41 40 40 38 37 36 36 35 34 33 32 31 31 31 30 30 30 29 29 28 28 27 26 26 25 24 24 23 23 22 22 22 23 23 24 24 25 25 26 25 25 24 23 23 23 23 23 23 23 23 24 24 24 24 25 26 26
32 32 31 31 32 34 36 37 39 40 41 41 42 41 40 38 37 36 36 35 34 33 32 32 32 31 31 30 30 29 29 28 28 27 26 26 25 24 24 23 23 22 22 22 23 23 24 24 25 26 26 26 25 24 23 23 23 24 24 24 23 23 23 24 24 24 25 25 26
33 32 31 31 31 32 34 36 38 39 41 42 42 41 40 38 37 36 35 35 34 33 33 33 32 32 31 31 30 30 29 28 28 27 27 26 25 25 24 23 23 23 22 22 23 23 24 25 25 26 26 26 25 25 24 23 24 24 25 24 24 23 23 24 24 24 25 25 26
35 34 32 31 31 31 33 35 37 39 41 42 41 40 39 38 37 36 36 35 34 34 33 33 32 32 31 31 30 30 29 29 28 27 27 26 25 25 24 23 23 22 22 22 23 23 24 25 26 26 26 26 25 25 24 24 25 25 25 25 25 24 24 24 24 25 25 26 26
35 34 32 31 31 31 32 34 36 38 40 41 41 40 39 39 38 37 36 35 35 34 34 34 33 32 32 31 31 30 29 29 28 27 27 26 26 25 24 24 23 22 22 22 23 23 24 25 26 26 26 26 25 25 25 25 25 26 26 25 25 25 24 24 24 25 25 26 27
36 34 33 31 31 31 31 33 35 37 39 41 41 41 40 40 38 37 36 36 35 35 35 34 33 33 32 32 31 30 29 29 28 27 27 27 26 25 25 24 23 22 22 22 23 24 24 25 26 26 26 25 25 25 25 25 26 26 26 26 26 25 25 24 24 25 26 27 27
36 35 33 32 31 31 31 33 35 37 39 40 41 41 41 40 39 38 37 36 36 36 35 34 34 33 33 32 31 30 30 29 28 28 27 27 26 26 25 24 23 22 22 22 23 24 25 25 26 26 26 26 25 26 26 26 26 27 27 26 26 26 25 25 24 25 26 27 28
37 36 34 33 32 32 32 33 35 36 38 39 40 41 41 40 39 38 38 37 37 36 35 35 34 34 33 32 31 31 30 29 28 28 28 27 27 26 25 24 23 22 22 22 23 24 25 25 26 26 26 26 26 26 26 27 27 27 27 27 27 26 26 25 25 25 26 27 28
38 37 35 34 33 32 33 34 35 36 38 39 40 41 41 40 40 39 39 38 37 36 36 35 35 34 33 32 32 31 30 29 29 28 28 27 27 26 25 24 23 22 22 22 23 24 25 25 26 26 26 26 26 26 26 27 27 28 28 27 27 27 26 25 25 26 26 27 28
39 38 36 35 34 33 33 34 35 36 38 39 40 40 41 41 40 40 39 38 38 37 36 36 35 34 33 32 32 31 30 29 29 29 28 28 27 26 25 24 23 22 22 23 23 24 25 25 25 26 26 26 26 26 27 27 27 28 28 28 27 27 26 26 26 26 26 27 28
40 39 37 36 35 34 34 34 35 37 38 39 39 40 41 41 41 40 40 39 38 37 36 36 35 34 33 33 32 31 30 30 29 29 28 28 27 26 25 23 23 22 23 23 24 24 25 25 25 26 26 26 27 27 27 27 28 28 28 28 27 27 27 26 26 26 26 27 28
40 39 38 36 35 34 34 35 35 37 38 38 39 40 41 41 41 41 40 39 38 38 37 36 35 34 34 33 32 31 31 30 30 29 29 28 27 26 24 23 23 23 23 24 24 24 25 25 25 25 26 27 27 27 27 27 27 28 28 27 27 27 26 26 25 25 26 26 27
41 40 38 37 35 34 34 34 35 36 37 38 39 40 40 41 41 41 40 39 39 38 37 36 35 35 34 33 32 32 31 30 30 29 28 27 26 25 24 23 23 23 24 24 24 24 24 25 25 25 26 27 27 27 27 28 28 27 27 27 27 26 26 25 24 24 25 25 26
41 40 39 37 35 34 33 34 34 35 36 37 38 39 40 41 41 41 41 40 39 38 37 36 35 35 34 33 33 32 31 30 30 29 28 27 26 25 24 24 23 23 24 24 25 24 24 24 25 25 26 27 27 28 28 28 28 27 27 27 27 26 25 24 23 23 24 24 25
41 40 39 37 35 33 33 33 33 34 35 37 38 39 40 41 41 41 41 40 39 37 37 36 36 35 34 33 33 32 31 30 29 29 28 27 26 25 24 24 23 24 24 25 25 24 24 24 25 25 26 27 27 28 28 28 28 28 28 27 26 25 24 22 22 22 23 24 25
40 39 38 36 35 33 32 32 32 33 34 36 38 39 40 41 41 41 41 39 38 37 37 37 36 35 34 34 33 32 31 30 29 28 28 27 26 26 24 24 24 24 25 25 25 24 24 24 25 25 26 27 27 27 28 28 28 28 28 27 26 24 23 21 21 22 23 24 26
39 38 37 36 35 34 33 32 32 33 34 36 38 39 40 40 41 41 40 39 38 38 37 37 36 35 34 34 33 32 31 30 29 28 28 27 26 25 24 24 24 25 25 25 25 24 24 24 25 25 26 27 27 27 28 28 28 28 28 27 25 23 22 21 21 22 23 25 27
37 37 37 36 35 34 33 33 33 33 35 36 37 39 40 40 40 40 40 39 39 38 38 37 36 35 34 34 33 32 31 30 29 28 28 27 27 25 24 24 24 25 25 25 25 24 24 24 25 25 26 26 27 27 28 28 28 28 28 26 24 22 21 21 21 22 24 26 28
36 36 36 36 35 35 34 33 33 34 35 36 37 38 39 40 40 40 40 40 39 39 38 37 36 35 35 34 33 32 31 30 29 28 28 27 27 26 24 24 24 25 26 26 25 24 24 24 25 25 25 26 27 27 28 28 28 28 27 25 23 22 21 21 21 22 25 27 29
36 36 36 36 35 34 34 33 34 34 35 36 37 38 39 39 40 40 40 40 39 39 38 37 36 35 35 34 34 32 31 30 29 28 28 27 27 25 24 24 24 25 26 26 25 25 24 24 25 25 26 26 27 27 28 28 27 26 25 24 22 21 21 20 21 23 25 28 29
35 35 35 35 35 34 34 34 34 34 34 35 36 37 39 39 40 40 40 40 39 39 38 37 36 36 35 35 34 33 31 30 28 28 27 27 26 25 24 24 24 25 26 26 26 25 24 24 25 25 26 27 28 28 28 28 27 26 25 23 22 21 20 20 22 24 26 28 29
34 35 35 35 35 35 35 34 33 33 34 35 36 37 38 39 40 40 40 40 39 38 38 37 37 36 36 36 34 33 31 29 28 27 27 27 26 25 24 23 24 26 27 27 26 25 24 24 24 25 26 27 27 28 28 27 26 25 25 24 23 21 20 21 23 25 27 27 28
34 34 35 35 35 35 35 34 34 34 34 34 35 36 38 39 40 40 40 40 39 39 38 38 37 37 37 36 35 33 31 29 27 26 26 27 26 24 23 23 24 26 26 27 26 25 24 24 24 25 25 26 26 26 26 26 26 25 25 24 23 22 21 22 24 26 26 27 28
33 34 34 35 35 35 34 34 34 33 33 33 34 36 37 39 40 40 41 40 40 40 39 39 38 38 37 37 35 33 30 28 26 25 26 26 25 24 23 24 24 25 26 27 26 26 25 24 24 25 25 25 25 25 26 26 25 25 25 24 23 23 23 24 25 25 25 26 28
33 33 34 34 34 34 34 34 33 32 32 32 33 35 37 39 40 41 41 41 41 40 40 39 38 38 38 37 35 32 30 27 25 25 25 26 25 25 24 24 24 25 26 27 27 26 25 25 24 25 25 25 25 25 25 25 25 25 25 25 24 24 24 25 25 24 25 26 27
33 33 34 34 34 34 34 33 33 32 32 32 33 35 37 39 40 41 41 41 41 40 39 39 39 39 38 36 35 32 30 27 25 25 25 25 25 25 24 24 24 25 26 27 27 26 25 25 25 25 25 25 25 25 25 24 25 25 25 25 25 25 25 25 24 23 24 25 27
34 34 34 34 35 35 34 34 33 33 32 32 33 34 36 38 40 41 41 41 41 40 40 40 40 39 38 37 35 33 30 27 26 25 25 25 25 25 25 25 25 25 25 27 27 27 26 25 25 25 25 25 25 25 25 25 25 26 26 26 26 26 26 24 23 22 23 25 26
35 35 35 35 35 35 34 34 34 33 33 33 33 34 36 37 39 40 41 41 41 41 41 41 40 39 38 37 35 33 30 27 26 25 25 25 25 25 25 25 24 24 25 26 27 27 26 25 25 25 25 25 25 25 26 26 27 27 28 28 28 27 25 23 21 21 22 24 25
36 36 36 36 35 35 34 34 34 34 34 33 33 34 35 37 38 40 41 42 42 42 42 41 40 39 38 37 35 32 30 27 26 26 26 26 26 26 26 25 24 24 25 26 27 27 26 25 25 25 25 25 25 26 26 27 28 28 29 29 28 27 25 22 20 21 22 24 26
36 37 37 36 35 35 34 34 34 34 34 34 33 33 34 36 38 40 41 42 42 42 42 41 40 39 38 37 35 32 30 28 27 27 28 27 27 26 26 25 23 23 24 26 27 27 26 25 25 25 25 25 26 26 27 28 28 29 29 29 29 27 25 22 20 21 22 25 27
35 36 36 36 35 34 34 33 33 34 34 34 34 33 34 36 38 39 41 41 42 43 43 42 41 40 39 37 35 33 30 28 28 28 29 28 28 27 26 24 23 23 24 26 27 27 26 25 25 25 25 25 26 27 27 28 28 29 29 29 28 27 25 23 21 22 24 26 28
34 35 35 35 35 34 33 33 33 33 33 33 33 33 34 35 37 39 40 42 43 43 43 43 42 41 39 37 35 33 30 29 29 29 29 29 28 27 25 24 23 23 24 25 27 27 26 25 25 25 25 26 26 27 27 27 28 28 28 29 28 28 26 25 24 25 26 27 28
34 34 34 35 34 34 33 33 33 33 32 32 32 32 33 35 36 39 41 42 43 44 44 43 42 41 39 37 35 32 30 29 29 30 30 29 28 27 25 24 23 23 24 25 26 27 26 25 25 25 25 26 26 26 27 27 27 28 28 28 28 28 27 27 27 27 27 27 27
36 35 34 33 33 33 34 34 34 33 32 32 32 33 34 35 36 38 40 42 43 44 44 43 42 40 38 36 34 32 31 30 30 31 31 30 28 27 25 24 23 23 24 25 26 27 26 25 25 24 25 25 26 26 26 27 27 27 28 28 28 28 28 28 28 28 27 26 26
38 35 34 32 32 32 33 34 35 34 33 33 33 34 34 35 36 38 39 41 43 43 43 42 41 39 37 35 34 32 31 31 31 31 31 30 28 27 25 24 23 23 23 25 26 26 26 25 24 24 24 25 26 26 26 26 26 27 28 28 28 27 27 27 28 27 26 24 24
38 36 34 32 31 31 33 34 35 35 35 35 35 35 34 35 36 37 39 40 41 42 42 41 40 39 37 35 34 32 32 31 31 31 31 30 28 27 25 24 23 23 23 24 26 26 26 25 24 24 24 25 25 25 25 25 26 27 27 27 27 26 26 26 27 26 24 22 23
Wind_Direction
268 266 264 261 259 256 254 252 251 250 250 250 251 251 252 252 253 253 253 253 254 256 257 259 259 259 259 258 259 261 263 266 268 270 271 272 273 273 274 274 275 276 277 278 279 279 280 281 282 282 284 285 287 289 290 292 293 293 294 294 295 296 296 296 296 297 297 297 297
271 268 266 263 259 257 254 252 250 249 249 249 250 251 252 252 252 252 252 253 254 255 257 257 257 257 256 257 258 260 263 265 267 269 270 271 272 272 273 273 274 275 276 277 278 279 279 280 281 282 283 285 286 288 290 291 292 293 293 294 295 295 295 295 296 297 297 297 298
272 270 266 263 260 257 254 251 250 249 249 249 250 250 251 251 251 251 252 252 253 254 255 255 255 255 255 255 257 259 262 264 266 268 269 270 271 271 271 272 272 273 275 276 277 278 279 280 280 281 283 285 286 288 289 291 292 292 293 294 295 295 295 296 297 298 298 298 299
271 270 267 265 261 258 256 254 252 251 250 250 250 250 250 251 251 251 251 251 252 252 253 254 254 254 254 255 256 258 261 263 265 266 267 269 269 270 270 271 271 272 274 275 276 278 278 279 280 281 282 284 285 287 289 290 291 292 292 294 295 295 296 297 298 298 298 299 300
270 270 268 267 264 262 259 256 254 252 251 250 250 250 250 250 250 250 250 250 250 251 253 253 253 253 253 254 255 257 260 262 263 265 266 267 268 268 269 269 271 272 273 275 276 277 278 279 279 281 282 284 285 287 288 290 291 291 292 293 294 295 296 297 298 299 299 300 301
268 269 269 267 265 262 259 256 253 251 250 249 248 249 249 249 249 249 249 249 250 251 252 252 252 252 252 253 254 256 259 261 263 264 265 266 267 267 268 268 270 271 273 274 276 277 278 279 279 281 282 283 285 287 288 290 290 291 292 293 294 295 296 297 298 299 300 301 302
267 267 267 266 264 262 259 255 253 250 249 248 247 247 248 248 248 249 249 250 250 251 251 251 251 251 251 252 253 256 258 260 262 263 264 265 265 266 267 268 269 271 272 274 275 276 277 278 279 280 282 283 285 287 288 290 290 291 292 293 294 295 296 297 299 300 301 302 304
266 265 264 263 262 260 258 255 252 250 248 247 246 247 247 248 248 249 249 249 249 250 250 250 251 251 251 252 253 255 257 260 261 262 263 264 265 265 266 267 269 270 272 274 275 276 277 277 279 280 281 283 285 287 289 290 290 290 291 293 295 295 297 298 299 301 302 303 304
266 265 263 261 259 258 256 254 251 249 248 247 247 247 247 247 248 248 248 248 249 249 250 250 250 250 251 251 253 255 257 259 260 262 263 263 264 264 265 267 268 270 272 274 275 276 276 277 278 280 282 284 285 287 289 289 289 290 292 293 295 296 297 298 299 301 302 303 304
267 266 264 262 259 257 254 252 250 248 247 247 246 246 246 246 247 247 247 248 248 249 249 249 249 249 250 250 252 254 256 258 260 261 262 262 263 264 265 266 268 270 272 273 274 275 276 277 278 280 282 284 286 287 288 288 289 290 292 293 295 296 297 298 299 300 302 303 304
268 268 266 263 261 257 254 251 249 247 246 245 245 245 245 245 245 246 246 247 247 248 248 249 249 249 249 250 252 254 256 258 259 260 261 262 263 264 265 266 268 270 272 273 274 275 276 277 279 280 282 284 285 287 287 288 289 290 291 293 294 296 297 298 299 300 301 302 303
269 268 267 264 261 258 254 251 248 247 245 244 243 243 243 244 244 245 245 246 246 247 248 248 248 248 249 250 251 253 255 257 258 260 260 261 262 263 264 266 268 270 272 273 274 275 276 277 279 281 282 284 285 286 287 288 289 290 291 292 293 295 296 298 299 300 300 301 303
269 268 266 264 261 257 254 250 248 246 244 243 243 242 242 243 243 244 245 245 246 247 247 248 248 248 248 249 251 252 254 256 258 259 260 261 262 263 264 266 268 270 272 273 274 275 276 277 279 281 282 284 285 286 287 288 289 289 290 292 293 294 296 297 299 300 300 301 302
269 267 266 263 260 257 253 250 247 245 243 242 242 241 242 242 243 243 244 245 246 246 247 247 247 247 248 249 250 252 254 256 257 259 259 260 261 262 264 266 268 270 272 273 274 274 276 277 279 280 282 284 285 286 287 287 288 289 291 292 293 294 295 297 298 299 300 301 301
268 267 265 263 260 256 253 250 247 245 243 241 241 240 241 241 242 243 244 244 245 246 246 247 247 247 247 248 249 251 253 255 257 258 259 260 261 262 264 266 268 270 272 273 274 274 276 277 279 280 282 284 285 286 287 287 288 289 291 292 293 294 295 296 298 299 300 300 300
267 267 265 262 260 256 253 250 247 245 242 241 240 239 240 240 241 242 243 244 245 245 246 246 246 246 247 247 248 250 252 254 256 258 259 260 261 263 264 266 268 270 272 272 273 274 276 277 279 281 282 283 285 286 287 287 289 290 291 292 293 294 294 296 297 298 299 299 299
268 267 265 263 260 257 254 251 248 245 243 241 240 239 239 239 240 242 242 243 244 245 245 245 245 245 246 246 248 249 251 254 256 257 259 260 261 263 264 266 268 270 271 272 273 274 276 277 279 281 282 283 285 286 287 288 289 290 291 292 292 293 294 295 297 298 298 298 300
268 267 266 264 262 259 256 252 249 246 244 242 240 239 239 239 240 241 242 243 244 244 245 245 245 245 245 246 247 249 251 253 256 257 259 260 262 263 264 266 268 269 271 272 273 274 276 278 279 281 282 283 285 286 287 288 290 291 291 292 292 292 293 294 295 297 298 299 303
269 268 267 266 264 261 258 254 251 248 245 243 241 239 239 239 240 241 242 243 243 244 245 245 244 244 245 245 247 249 251 253 256 257 259 260 261 262 264 266 268 269 270 272 273 275 276 278 279 281 282 283 285 286 287 289 290 291 291 291 291 291 292 293 294 296 299 303 308
271 270 269 268 267 264 261 257 253 249 246 243 241 240 239 239 239 240 241 242 243 244 244 244 244 243 244 245 246 248 251 253 255 257 258 259 260 261 263 265 267 269 270 272 273 275 276 278 280 281 282 284 285 286 288 289 290 291 291 290 290 290 290 291 293 297 303 309 312
273 272 272 271 269 267 263 259 255 251 247 244 242 240 239 239 239 240 241 242 243 243 243 243 243 243 243 244 245 248 250 253 255 256 258 259 260 261 263 265 267 269 270 272 273 275 277 279 280 281 283 284 285 287 288 290 290 290 290 289 288 287 287 288 293 300 307 313 314
276 276 275 273 271 268 265 261 256 252 248 244 242 240 239 238 239 240 241 242 242 243 243 243 242 242 242 244 245 247 249 252 254 256 257 258 259 261 263 265 268 269 271 272 274 275 277 279 281 282 283 285 286 287 289 289 290 289 288 287 285 284 283 286 293 302 310 313 312
280 279 277 275 273 270 266 262 257 252 248 245 242 240 239 238 238 239 240 241 241 242 242 242 241 241 242 243 244 246 248 251 253 255 257 258 259 261 262 265 268 270 272 273 275 276 278 279 281 282 284 285 286 288 288 288 288 287 286 285 283 281 282 286 295 305 310 311 310
282 280 279 276 274 271 268 263 258 253 249 245 242 240 239 238 238 239 239 240 241 241 241 241 241 240 241 242 243 245 247 249 252 255 257 259 260 261 263 266 269 271 273 274 275 277 278 280 281 283 284 285 286 286 286 286 285 284 284 284 283 282 284 290 299 307 310 308 307
283 282 279 277 275 273 269 265 260 255 251 247 243 241 239 238 238 238 239 239 240 240 240 240 240 240 240 241 242 244 246 248 251 254 256 258 260 261 264 267 270 273 275 276 276 277 279 281 283 284 285 285 286 286 286 285 285 286 287 287 287 287 289 295 303 307 307 304 304
284 282 280 278 276 274 271 267 263 259 254 249 245 242 240 239 238 238 239 239 240 240 240 239 239 239 239 240 241 243 244 247 250 254 257 259 260 261 264 268 271 274 276 276 277 278 279 281 283 284 286 287 288 288 289 289 290 291 291 290 289 289 292 298 302 303 301 299 299
286 283 282 280 277 275 272 270 266 262 257 252 247 244 241 239 238 238 239 239 240 240 239 239 238 238 238 239 240 241 243 246 249 253 257 259 260 261 264 268 272 274 276 277 277 278 279 280 282 283 285 287 288 290 291 291 292 291 290 288 287 288 292 297 298 296 294 293 295
289 286 284 282 279 277 274 272 268 264 259 254 250 246 243 240 239 239 239 239 239 239 239 238 237 237 238 238 239 240 242 244 247 252 256 258 259 261 263 268 271 274 276 277 277 278 278 280 281 282 284 285 286 287 287 287 286 285 284 284 285 287 290 291 290 288 289 292 295
293 290 287 284 282 279 277 273 270 267 263 258 253 248 244 242 240 239 239 238 238 238 238 237 237 237 237 238 239 240 241 242 246 250 254 257 258 260 263 267 271 274 276 277 277 277 278 279 281 282 283 284 284 283 282 282 281 281 281 281 282 284 284 283 282 285 290 295 297
295 292 289 287 284 282 279 276 273 270 266 261 255 250 246 243 241 239 238 238 238 238 238 237 237 237 237 238 239 239 239 241 244 248 252 255 257 259 263 267 270 273 275 276 276 277 277 279 281 282 284 284 283 282 281 280 279 279 278 278 278 278 278 278 281 287 293 297 298
296 294 292 290 287 284 281 278 275 272 267 262 257 252 247 244 241 240 239 238 238 238 238 238 237 237 238 239 239 238 238 239 242 246 250 253 256 258 262 265 269 272 274 275 275 276 277 278 280 282 284 284 283 282 280 278 276 275 274 274 275 275 276 278 283 290 296 297 298
299 296 294 292 290 287 284 280 276 272 268 264 259 253 249 245 243 241 240 239 238 238 237 237 237 237 237 238 238 237 237 237 240 243 247 251 254 257 260 264 267 270 272 274 275 276 277 278 280 282 283 284 283 281 279 276 273 271 270 271 271 272 274 278 285 292 296 297 299
303 300 298 295 293 290 286 281 278 274 270 265 260 255 251 247 244 242 240 239 238 237 237 237 237 237 237 237 237 236 235 235 238 242 245 248 252 255 259 262 266 269 272 274 275 276 277 278 280 282 283 283 283 281 279 276 273 271 270 269 270 271 274 278 285 292 296 297 300
308 305 302 299 296 292 288 284 280 276 272 267 262 257 252 248 244 242 240 238 237 237 237 237 237 237 237 237 236 235 234 234 236 240 243 247 250 254 258 261 265 268 271 274 275 275 276 278 279 281 283 283 282 281 279 276 274 272 271 271 272 273 275 278 284 289 293 295 298
312 308 304 301 298 294 290 287 283 278 274 269 264 258 253 248 244 241 239 238 237 237 237 237 237 237 237 236 235 234 232 233 235 239 242 246 249 253 257 260 263 266 269 272 274 275 276 277 279 281 282 283 282 281 279 277 275 274 273 273 274 274 274 276 279 284 288 290 293
313 308 305 301 298 296 292 289 285 281 276 271 266 260 254 248 244 241 239 238 237 236 236 236 236 235 235 234 233 231 230 231 234 238 242 245 249 252 256 259 261 263 267 270 273 274 276 277 278 280 281 282 282 282 281 279 277 275 274 274 274 274 273 272 274 278 281 284 290
312 308 304 301 298 296 294 291 287 282 278 273 268 261 255 249 245 241 239 237 236 235 235 235 234 234 234 233 231 230 229 230 234 238 242 245 248 252 255 257 259 261 265 269 272 274 275 277 278 279 281 282 282 282 282 280 278 277 276 275 275 274 272 270 271 273 277 282 290
313 308 304 300 297 295 293 290 286 282 279 275 270 263 256 250 245 241 238 236 235 234 234 234 234 233 233 232 231 229 228 229 233 238 242 246 249 252 254 256 257 260 264 268 271 273 275 276 277 279 280 282 283 283 282 281 279 278 277 276 275 274 272 271 272 273 277 284 292
309 307 304 300 297 294 291 288 285 283 280 277 272 265 258 252 246 242 239 237 235 234 233 233 233 233 233 231 229 227 226 228 233 239 243 246 249 251 254 255 256 259 262 267 270 273 274 275 277 278 280 281 282 283 282 282 281 279 278 277 276 275 274 274 275 277 281 287 293
296 299 300 298 296 293 289 286 285 283 281 277 273 267 261 255 249 245 241 238 236 235 234 233 233 233 232 230 228 226 225 228 234 240 244 247 249 251 253 254 255 257 261 266 270 272 274 275 276 278 280 281 282 282 282 282 281 280 279 278 277 277 277 278 279 281 285 290 293
283 288 292 293 292 290 288 286 285 284 281 277 274 270 265 259 254 249 244 241 238 235 234 233 232 232 230 228 226 224 225 229 235 241 245 248 249 250 251 253 254 257 261 265 269 272 273 274 276 277 279 281 282 282 282 281 281 280 279 278 278 279 280 281 283 285 288 292 294